ELEKTRO-L 2

Last updated on Sat Nov 01 2025 00:02:21 GMT+0000 (Coordinated Universal Time)

1 41105U 15074A 25304.68020319 -.00000101 00000+0 00000+0 0 9992 2 41105 6.1149 73.3261 0003237 185.2667 12.0747 1.00271752 36214
UTC large
Height (km)
Speed (km/s)
/
Latitude / Longitude
Inclination (degrees)
Orbital Period (minutes)
Azimuth
Elevation
Range (km)
Doppler Factor

Next 0 passes for location: London (51.5072 / 0.1276)

Sorry there are no passes over London.